�������l�o���
Date,Time,MP-1(��Sv/h),MP-2(��Sv/h),MP-3(��Sv/h),MP-4(��Sv/h),MP-5(��Sv/h),MP-6(��Sv/h),MP-7(��Sv/h),MP-8(��Sv/h),����,����(m/s),���J
2021/08/06,00:00,0.619,0.930,0.588,1.117,0.805,0.370,0.642,0.599,��,6.0,��
2021/08/06,00:10,0.620,0.929,0.587,1.116,0.804,0.371,0.642,0.598,��,5.8,��
2021/08/06,00:20,0.619,0.927,0.587,1.117,0.803,0.371,0.642,0.598,��,6.7,��
2021/08/06,00:30,0.621,0.928,0.587,1.115,0.803,0.371,0.642,0.599,��,7.2,��
2021/08/06,00:40,0.618,0.927,0.586,1.115,0.805,0.371,0.643,0.597,��,6.9,��
2021/08/06,00:50,0.619,0.928,0.587,1.117,0.804,0.371,0.642,0.598,��,7.8,��
2021/08/06,01:00,0.620,0.927,0.587,1.116,0.804,0.370,0.642,0.598,��,7.6,��
2021/08/06,01:10,0.619,0.929,0.587,1.115,0.806,0.371,0.643,0.598,��,7.3,��
2021/08/06,01:20,0.619,0.928,0.585,1.117,0.805,0.371,0.641,0.599,��,6.8,��
2021/08/06,01:30,0.619,0.927,0.587,1.117,0.806,0.372,0.641,0.599,��,6.2,��
2021/08/06,01:40,0.619,0.928,0.587,1.117,0.805,0.371,0.643,0.598,��,6.1,��
2021/08/06,01:50,0.618,0.928,0.587,1.117,0.808,0.371,0.642,0.599,��,5.4,��
2021/08/06,02:00,0.618,0.930,0.588,1.115,0.805,0.373,0.643,0.598,��,6.0,��
2021/08/06,02:10,0.618,0.928,0.587,1.116,0.803,0.372,0.641,0.599,��,5.6,��
2021/08/06,02:20,0.620,0.928,0.588,1.116,0.804,0.372,0.642,0.600,��,5.0,��
2021/08/06,02:30,0.619,0.928,0.588,1.117,0.806,0.371,0.641,0.599,��,4.7,��
2021/08/06,02:40,0.619,0.930,0.587,1.117,0.807,0.372,0.643,0.599,��쐼,3.1,��
2021/08/06,02:50,0.620,0.928,0.589,1.116,0.808,0.371,0.642,0.597,��,2.8,��
2021/08/06,03:00,0.620,0.928,0.589,1.119,0.805,0.372,0.641,0.597,��,3.3,��
2021/08/06,03:10,0.619,0.929,0.588,1.119,0.807,0.372,0.642,0.599,��,3.4,��
2021/08/06,03:20,0.620,0.930,0.588,1.116,0.805,0.371,0.641,0.599,��,3.1,��
2021/08/06,03:30,0.619,0.930,0.589,1.120,0.806,0.371,0.640,0.599,��,2.3,��
2021/08/06,03:40,0.619,0.930,0.588,1.116,0.808,0.372,0.643,0.599,��쓌,2.2,��
2021/08/06,03:50,0.621,0.931,0.588,1.117,0.807,0.372,0.644,0.599,��,1.7,��
2021/08/06,04:00,0.619,0.928,0.589,1.117,0.807,0.371,0.641,0.600,��,1.1,��
2021/08/06,04:10,0.619,0.930,0.590,1.118,0.806,0.373,0.643,0.600,��쐼,1.2,��
2021/08/06,04:20,0.622,0.931,0.588,1.120,0.806,0.372,0.644,0.600,���쐼,0.9,��
2021/08/06,04:30,0.620,0.931,0.588,1.118,0.809,0.375,0.642,0.599,��,0.6,��
2021/08/06,04:40,0.621,0.931,0.589,1.119,0.807,0.373,0.642,0.599,�k�k��,1.1,��
2021/08/06,04:50,0.622,0.928,0.590,1.118,0.809,0.373,0.643,0.601,�k,1.4,�L
2021/08/06,05:00,0.621,0.933,0.590,1.121,0.805,0.373,0.644,0.599,�k�k��,1.5,��
2021/08/06,05:10,0.623,0.933,0.589,1.120,0.807,0.374,0.644,0.600,�k,1.1,��
2021/08/06,05:20,0.624,0.932,0.592,1.119,0.808,0.375,0.643,0.601,�k��,0.9,��
2021/08/06,05:30,0.624,0.933,0.590,1.122,0.809,0.374,0.643,0.601,�k,1.7,��
2021/08/06,05:40,0.625,0.933,0.590,1.122,0.808,0.374,0.645,0.600,�k,1.9,��
2021/08/06,05:50,0.625,0.935,0.592,1.120,0.807,0.376,0.644,0.601,�k��,0.9,��
2021/08/06,06:00,0.623,0.933,0.590,1.119,0.809,0.376,0.644,0.599,�k,1.5,��
2021/08/06,06:10,0.623,0.931,0.590,1.121,0.809,0.373,0.645,0.599,�k,1.5,��
2021/08/06,06:20,0.622,0.931,0.589,1.122,0.809,0.374,0.645,0.601,�k,2.8,��
2021/08/06,06:30,0.622,0.932,0.589,1.120,0.805,0.375,0.643,0.601,�k,2.6,��
2021/08/06,06:40,0.620,0.930,0.590,1.119,0.807,0.374,0.644,0.600,�k,1.7,��
2021/08/06,06:50,0.623,0.931,0.589,1.121,0.805,0.374,0.644,0.602,�k,1.4,��
2021/08/06,07:00,0.622,0.932,0.590,1.121,0.806,0.373,0.644,0.600,�k,1.5,��
2021/08/06,07:10,0.622,0.930,0.589,1.119,0.808,0.374,0.643,0.600,�k�k��,2.2,��
2021/08/06,07:20,0.622,0.931,0.589,1.119,0.807,0.374,0.643,0.599,�k��,1.7,��
2021/08/06,07:30,0.622,0.931,0.588,1.120,0.809,0.373,0.643,0.599,�k�k��,1.9,��
2021/08/06,07:40,0.623,0.930,0.589,1.121,0.805,0.373,0.643,0.600,�k,1.7,��
2021/08/06,07:50,0.623,0.930,0.589,1.119,0.805,0.372,0.643,0.600,�k�k��,2.6,��
2021/08/06,08:00,0.621,0.931,0.587,1.116,0.806,0.372,0.644,0.600,�k�k��,3.1,��
2021/08/06,08:10,0.622,0.931,0.588,1.119,0.806,0.372,0.643,0.600,�k�k��,3.3,��
2021/08/06,08:20,0.619,0.931,0.586,1.119,0.805,0.374,0.644,0.601,�k,2.0,��
2021/08/06,08:30,0.620,0.929,0.587,1.119,0.806,0.371,0.645,0.599,�k,1.7,��
2021/08/06,08:40,0.624,0.929,0.588,1.118,0.805,0.371,0.644,0.598,�k�k��,2.0,��
2021/08/06,08:50,0.621,0.927,0.588,1.118,0.806,0.372,0.644,0.600,�k�k��,2.3,��
2021/08/06,09:00,0.620,0.929,0.586,1.119,0.806,0.373,0.645,0.597,�k��,2.2,��
2021/08/06,09:10,0.620,0.930,0.585,1.116,0.805,0.373,0.644,0.597,�k��,2.0,��
2021/08/06,09:20,0.620,0.929,0.585,1.120,0.802,0.372,0.645,0.598,���k��,1.9,��
2021/08/06,09:30,0.622,0.929,0.587,1.117,0.806,0.372,0.644,0.597,���k��,2.3,��
2021/08/06,09:40,0.621,0.928,0.587,1.119,0.804,0.372,0.645,0.597,���k��,2.9,��
2021/08/06,09:50,0.619,0.927,0.588,1.117,0.803,0.371,0.644,0.596,���k��,2.8,��
2021/08/06,10:00,0.620,0.929,0.586,1.117,0.804,0.371,0.642,0.598,���k��,2.9,��
2021/08/06,10:10,0.620,0.930,0.586,1.119,0.805,0.370,0.641,0.598,���k��,3.0,��
2021/08/06,10:20,0.620,0.928,0.587,1.118,0.806,0.371,0.640,0.598,��,2.6,��
2021/08/06,10:30,0.622,0.928,0.588,1.116,0.805,0.370,0.642,0.597,��,2.3,��
2021/08/06,10:40,0.623,0.932,0.588,1.118,0.806,0.371,0.640,0.598,��,2.6,��
2021/08/06,10:50,0.620,0.925,0.587,1.120,0.806,0.370,0.642,0.598,���쓌,2.2,��
2021/08/06,11:00,0.622,0.927,0.587,1.119,0.807,0.371,0.643,0.597,�쓌,2.6,��
2021/08/06,11:10,0.620,0.929,0.587,1.122,0.806,0.372,0.642,0.597,��쓌,4.3,��
2021/08/06,11:20,0.621,0.928,0.590,1.120,0.808,0.370,0.643,0.597,��쓌,5.5,��
2021/08/06,11:30,0.620,0.925,0.590,1.120,0.808,0.372,0.643,0.598,��쓌,5.6,��
2021/08/06,11:40,0.622,0.926,0.588,1.120,0.806,0.371,0.644,0.597,��쓌,7.2,��
2021/08/06,11:50,0.621,0.929,0.589,1.118,0.807,0.372,0.644,0.596,��쓌,6.3,��
2021/08/06,12:00,0.623,0.930,0.588,1.118,0.808,0.370,0.642,0.598,��쓌,7.0,��
2021/08/06,12:10,0.622,0.931,0.587,1.119,0.808,0.372,0.644,0.598,��쓌,8.3,��
2021/08/06,12:20,0.622,0.931,0.588,1.119,0.809,0.370,0.644,0.598,��쓌,8.1,��
2021/08/06,12:30,0.622,0.929,0.588,1.121,0.809,0.370,0.643,0.598,��쓌,8.2,��
2021/08/06,12:40,0.620,0.931,0.588,1.118,0.809,0.372,0.642,0.597,��쓌,8.2,��
2021/08/06,12:50,0.621,0.932,0.588,1.121,0.808,0.372,0.643,0.598,��쓌,9.2,��
2021/08/06,13:00,0.622,0.931,0.589,1.120,0.808,0.372,0.643,0.598,��쓌,9.5,��
2021/08/06,13:10,0.622,0.932,0.588,1.119,0.809,0.372,0.643,0.599,��쓌,9.6,��
2021/08/06,13:20,0.622,0.930,0.588,1.119,0.810,0.371,0.643,0.599,��쓌,8.5,��
2021/08/06,13:30,0.622,0.929,0.589,1.119,0.809,0.372,0.642,0.599,��쓌,8.3,��
2021/08/06,13:40,0.623,0.930,0.588,1.121,0.809,0.372,0.643,0.598,��,7.4,��
2021/08/06,13:50,0.623,0.931,0.589,1.120,0.810,0.372,0.643,0.598,��쓌,8.7,��
2021/08/06,14:00,0.622,0.932,0.589,1.122,0.809,0.372,0.642,0.598,��쓌,8.1,��
2021/08/06,14:10,0.622,0.930,0.589,1.118,0.808,0.372,0.643,0.600,��쓌,6.6,��
2021/08/06,14:20,0.623,0.931,0.588,1.122,0.810,0.371,0.644,0.600,��,7.6,��
2021/08/06,14:30,0.623,0.932,0.589,1.120,0.813,0.370,0.647,0.600,��쓌,8.9,��
2021/08/06,14:40,0.624,0.931,0.589,1.122,0.811,0.373,0.645,0.600,��쓌,8.9,��
2021/08/06,14:50,0.622,0.932,0.589,1.120,0.811,0.372,0.646,0.600,��쓌,8.6,��
2021/08/06,15:00,0.624,0.934,0.591,1.121,0.811,0.372,0.645,0.600,��쓌,8.7,��
2021/08/06,15:10,0.623,0.931,0.589,1.120,0.809,0.373,0.646,0.600,��쓌,11.0,��
2021/08/06,15:20,0.622,0.929,0.589,1.121,0.811,0.371,0.645,0.597,��쓌,11.6,��
2021/08/06,15:30,0.623,0.932,0.589,1.120,0.809,0.372,0.645,0.600,��,9.8,��
2021/08/06,15:40,0.622,0.931,0.588,1.120,0.810,0.371,0.645,0.599,��,9.7,��
2021/08/06,15:50,0.623,0.932,0.589,1.121,0.813,0.372,0.645,0.599,��쓌,9.2,��
2021/08/06,16:00,0.623,0.931,0.587,1.121,0.811,0.372,0.645,0.599,��쓌,10.2,��
2021/08/06,16:10,0.622,0.932,0.590,1.119,0.812,0.373,0.645,0.598,��쓌,10.7,��
2021/08/06,16:20,0.623,0.932,0.589,1.123,0.809,0.373,0.645,0.599,��쓌,11.3,��
2021/08/06,16:30,0.623,0.932,0.590,1.121,0.810,0.373,0.644,0.598,��쓌,11.3,��
2021/08/06,16:40,0.623,0.933,0.588,1.122,0.812,0.374,0.644,0.598,��쓌,11.6,��
2021/08/06,16:50,0.624,0.932,0.590,1.125,0.811,0.373,0.643,0.600,��쓌,10.3,��
2021/08/06,17:00,0.621,0.933,0.589,1.125,0.811,0.373,0.646,0.600,��쓌,11.0,��
2021/08/06,17:10,0.621,0.929,0.587,1.123,0.811,0.373,0.642,0.599,��쓌,10.7,��
2021/08/06,17:20,0.622,0.932,0.588,1.125,0.812,0.373,0.644,0.596,��,9.7,��
2021/08/06,17:30,0.623,0.932,0.589,1.124,0.810,0.373,0.644,0.599,��쓌,10.5,��
2021/08/06,17:40,0.624,0.932,0.590,1.124,0.810,0.372,0.643,0.598,��쓌,10.0,��
2021/08/06,17:50,0.621,0.931,0.589,1.123,0.810,0.371,0.644,0.599,��쓌,10.7,��
2021/08/06,18:00,0.622,0.931,0.589,1.123,0.809,0.373,0.644,0.599,��쓌,10.8,��
2021/08/06,18:10,0.622,0.933,0.589,1.124,0.813,0.373,0.643,0.598,��쓌,10.0,��
2021/08/06,18:20,0.621,0.930,0.588,1.122,0.810,0.372,0.643,0.598,��쓌,9.9,��
2021/08/06,18:30,0.620,0.931,0.588,1.123,0.811,0.372,0.645,0.599,��,9.7,��
2021/08/06,18:40,0.620,0.932,0.589,1.123,0.813,0.372,0.644,0.598,��쓌,10.5,��
2021/08/06,18:50,0.621,0.931,0.588,1.124,0.812,0.374,0.645,0.598,��,9.7,��
2021/08/06,19:00,0.623,0.932,0.589,1.123,0.813,0.372,0.642,0.597,��,9.1,��
2021/08/06,19:10,0.621,0.933,0.589,1.121,0.814,0.373,0.643,0.600,��,8.4,��
2021/08/06,19:20,0.622,0.933,0.589,1.121,0.810,0.373,0.644,0.599,��,8.2,��
2021/08/06,19:30,0.621,0.933,0.589,1.124,0.812,0.372,0.645,0.600,��,8.0,��
2021/08/06,19:40,0.622,0.934,0.586,1.124,0.813,0.373,0.645,0.598,��,8.4,��
2021/08/06,19:50,0.622,0.933,0.589,1.125,0.814,0.373,0.643,0.598,��,7.8,��
2021/08/06,20:00,0.621,0.933,0.588,1.122,0.811,0.373,0.646,0.599,��,7.9,��
2021/08/06,20:10,0.622,0.933,0.590,1.126,0.813,0.372,0.644,0.600,��,7.5,��
2021/08/06,20:20,0.623,0.936,0.591,1.122,0.811,0.373,0.643,0.598,��,7.5,��
2021/08/06,20:30,0.622,0.936,0.591,1.125,0.812,0.373,0.643,0.600,��,7.5,��
2021/08/06,20:40,0.621,0.935,0.592,1.123,0.814,0.373,0.644,0.599,��,6.8,��
2021/08/06,20:50,0.623,0.937,0.591,1.124,0.812,0.373,0.644,0.598,��,7.4,��
2021/08/06,21:00,0.622,0.933,0.591,1.124,0.814,0.372,0.645,0.598,��,7.2,��
2021/08/06,21:10,0.623,0.937,0.591,1.123,0.812,0.372,0.643,0.599,��,6.9,��
2021/08/06,21:20,0.623,0.934,0.592,1.125,0.811,0.373,0.643,0.600,��,6.5,��
2021/08/06,21:30,0.621,0.934,0.590,1.125,0.811,0.372,0.644,0.600,��,7.0,��
2021/08/06,21:40,0.623,0.932,0.590,1.126,0.814,0.373,0.644,0.600,��,6.3,��
2021/08/06,21:50,0.625,0.935,0.589,1.125,0.813,0.372,0.643,0.599,��,7.5,��
2021/08/06,22:00,0.623,0.934,0.587,1.124,0.814,0.373,0.645,0.600,��,7.1,��
2021/08/06,22:10,0.622,0.933,0.591,1.122,0.813,0.374,0.644,0.599,��,6.2,��
2021/08/06,22:20,0.621,0.931,0.589,1.122,0.812,0.372,0.644,0.599,��,6.4,��
2021/08/06,22:30,0.624,0.934,0.590,1.123,0.813,0.372,0.643,0.599,��,6.2,��
2021/08/06,22:40,0.622,0.935,0.589,1.125,0.812,0.372,0.644,0.599,��,5.6,��
2021/08/06,22:50,0.623,0.935,0.591,1.123,0.810,0.372,0.644,0.601,��,6.6,��
2021/08/06,23:00,0.622,0.933,0.591,1.125,0.812,0.372,0.643,0.600,��,6.4,��
2021/08/06,23:10,0.622,0.934,0.590,1.124,0.812,0.373,0.642,0.599,��,6.4,��
2021/08/06,23:20,0.623,0.935,0.591,1.124,0.812,0.372,0.644,0.600,��,5.4,��
2021/08/06,23:30,0.622,0.935,0.593,1.124,0.814,0.372,0.644,0.600,��,4.5,��
2021/08/06,23:40,0.623,0.933,0.589,1.124,0.813,0.373,0.644,0.598,��,4.3,��
2021/08/06,23:50,0.623,0.935,0.590,1.124,0.812,0.373,0.644,0.600,��쐼,4.9,��
